When you browse on this site, cookies collect data to enhance your experience and personalize the content and advertising you see.
Visit our Privacy Policy to learn more. By continuing to use the site, you agree to this use of cookies and data.
  • In Hungary
  • List of Countries
  • For 7 days
  • Water Temperature
  • Weather Map
  • News
  • Weather Widgets
  • user-avatar
    Login

    Hourly Weather Ceska Trebova

    Today, 26 February, Wednesday

    Time Temperature Precipitation Wind Pressure Humidity
    00:00 +4°C° 0.3 mm 3 mps 714 mmHg 90%
    01:00 +4°C° 0 mm 3 mps 713 mmHg 91%
    02:00 +4°C° 0.1 mm 3 mps 713 mmHg 89%
    03:00 +3°C° 0.1 mm 4 mps 712 mmHg 86%
    04:00 +3°C° 0.1 mm 4 mps 711 mmHg 83%
    05:00 +3°C° 0 mm 4 mps 711 mmHg 83%
    06:00 +2°C° 0 mm 5 mps 711 mmHg 83%
    07:00 +3°C° 0 mm 4 mps 712 mmHg 86%
    08:00 +2°C° 0.1 mm 5 mps 712 mmHg 82%
    09:00 +2°C° 0.1 mm 6 mps 712 mmHg 79%
    10:00 +3°C° 0.1 mm 6 mps 712 mmHg 76%
    11:00 +3°C° 0.2 mm 7 mps 712 mmHg 71%
    12:00 +3°C° 0.2 mm 7 mps 712 mmHg 65%
    13:00 +3°C° 0 mm 7 mps 712 mmHg 60%
    14:00 +3°C° 0.1 mm 7 mps 712 mmHg 60%
    15:00 +2°C° 0.1 mm 6 mps 712 mmHg 59%
    16:00 +2°C° 0.1 mm 6 mps 712 mmHg 59%
    17:00 +2°C° 0.1 mm 5 mps 713 mmHg 63%
    18:00 +1°C° 0.1 mm 4 mps 713 mmHg 68%
    19:00 0°C° 0.1 mm 4 mps 714 mmHg 73%
    20:00 0°C° 0.1 mm 4 mps 714 mmHg 79%
    21:00 -1°C° 0.1 mm 5 mps 715 mmHg 85%
    22:00 -3°C° 0.1 mm 6 mps 715 mmHg 91%
    23:00 -3°C° 0.1 mm 6 mps 715 mmHg 89%

    Tomorrow, 27 February, Thursday

    Time Temperature Precipitation Wind Pressure Humidity
    00:00 -3°C° 0.1 mm 6 mps 716 mmHg 88%
    01:00 -3°C° 0.1 mm 6 mps 716 mmHg 86%
    02:00 -3°C° 0 mm 6 mps 716 mmHg 87%
    03:00 -3°C° 0 mm 6 mps 717 mmHg 89%
    04:00 -3°C° 0 mm 6 mps 717 mmHg 91%
    05:00 -3°C° 0.2 mm 6 mps 717 mmHg 89%
    06:00 -3°C° 0.2 mm 7 mps 718 mmHg 88%
    07:00 -3°C° 0.2 mm 7 mps 718 mmHg 87%
    08:00 -2°C° 0.1 mm 7 mps 719 mmHg 83%
    09:00 -2°C° 0.1 mm 7 mps 719 mmHg 79%
    10:00 -1°C° 0.1 mm 7 mps 719 mmHg 75%
    11:00 -1°C° 0 mm 7 mps 719 mmHg 71%
    12:00 +1°C° 0 mm 6 mps 719 mmHg 67%
    13:00 +1°C° 0 mm 6 mps 719 mmHg 63%
    14:00 +2°C° 0 mm 5 mps 718 mmHg 63%
    15:00 +3°C° 0 mm 4 mps 717 mmHg 64%
    16:00 +3°C° 0 mm 3 mps 717 mmHg 64%
    17:00 +2°C° 0 mm 3 mps 716 mmHg 67%
    18:00 +1°C° 0 mm 3 mps 715 mmHg 71%
    19:00 0°C° 0 mm 3 mps 715 mmHg 75%
    20:00 0°C° 0 mm 3 mps 714 mmHg 75%
    21:00 0°C° 0 mm 3 mps 713 mmHg 75%
    22:00 0°C° 0 mm 3 mps 712 mmHg 76%
    23:00 0°C° 0.1 mm 3 mps 712 mmHg 78%

    Day after tomorrow, 28 February, Friday

    Time Temperature Precipitation Wind Pressure Humidity
    00:00 0°C° 0.1 mm 3 mps 711 mmHg 80%
    01:00 0°C° 0.1 mm 3 mps 710 mmHg 82%
    02:00 -2°C° 1.1 mm 4 mps 711 mmHg 86%
    03:00 -2°C° 1.1 mm 4 mps 712 mmHg 91%
    04:00 -2°C° 1.1 mm 5 mps 713 mmHg 95%
    05:00 -3°C° 0.4 mm 6 mps 714 mmHg 94%
    06:00 -3°C° 0.4 mm 6 mps 716 mmHg 94%
    07:00 -3°C° 0.4 mm 7 mps 718 mmHg 94%
    08:00 -3°C° 0.2 mm 7 mps 719 mmHg 92%
    09:00 -2°C° 0.2 mm 7 mps 720 mmHg 89%
    10:00 -2°C° 0.2 mm 7 mps 722 mmHg 87%
    11:00 -2°C° 0.3 mm 8 mps 722 mmHg 85%
    12:00 -1°C° 0.3 mm 8 mps 723 mmHg 83%
    13:00 -1°C° 0.3 mm 9 mps 724 mmHg 81%
    14:00 -1°C° 0.1 mm 8 mps 725 mmHg 79%
    15:00 -1°C° 0.1 mm 8 mps 725 mmHg 77%
    16:00 -1°C° 0.1 mm 7 mps 725 mmHg 75%
    17:00 -2°C° 0 mm 6 mps 725 mmHg 79%
    18:00 -2°C° 0 mm 5 mps 726 mmHg 83%
    19:00 -2°C° 0 mm 4 mps 726 mmHg 86%
    20:00 -2°C° 0 mm 3 mps 726 mmHg 88%
    21:00 -2°C° 0 mm 3 mps 727 mmHg 89%
    22:00 -3°C° 0 mm 2 mps 727 mmHg 90%
    23:00 -3°C° 0 mm 2 mps 727 mmHg 90%

    29 February, Saturday

    Time Temperature Precipitation Wind Pressure Humidity
    00:00 -1°C° 0 mm 1 mps 726 mmHg 89%
    01:00 0°C° 0 mm 1 mps 726 mmHg 89%
    02:00 -2°C° 0 mm 2 mps 726 mmHg 88%
    03:00 -2°C° 0 mm 2 mps 725 mmHg 87%
    04:00 -2°C° 0 mm 3 mps 725 mmHg 87%
    05:00 -2°C° 0 mm 3 mps 724 mmHg 86%
    06:00 -2°C° 0 mm 3 mps 724 mmHg 86%
    07:00 -3°C° 0 mm 4 mps 723 mmHg 85%
    08:00 -2°C° 0 mm 4 mps 723 mmHg 84%
    09:00 -1°C° 0 mm 5 mps 722 mmHg 83%
    10:00 0°C° 0 mm 5 mps 722 mmHg 82%
    11:00 0°C° 0 mm 5 mps 721 mmHg 79%
    12:00 +1°C° 0 mm 5 mps 721 mmHg 77%
    13:00 +1°C° 0 mm 5 mps 720 mmHg 74%
    14:00 +2°C° 0 mm 5 mps 719 mmHg 74%
    15:00 +2°C° 0 mm 5 mps 719 mmHg 73%
    16:00 +2°C° 0 mm 6 mps 718 mmHg 73%
    17:00 +1°C° 0 mm 5 mps 718 mmHg 74%
    18:00 +1°C° 0 mm 5 mps 717 mmHg 75%
    19:00 +1°C° 0 mm 5 mps 717 mmHg 76%
    20:00 +1°C° 0 mm 5 mps 717 mmHg 80%
    21:00 +1°C° 0 mm 5 mps 717 mmHg 84%
    22:00 +1°C° 0 mm 5 mps 717 mmHg 87%
    23:00 +1°C° 0 mm 4 mps 717 mmHg 88%

    1 March, Sunday

    Time Temperature Precipitation Wind Pressure Humidity
    00:00 +1°C° 0 mm 4 mps 717 mmHg 88%
    01:00 +1°C° 0 mm 4 mps 716 mmHg 88%
    02:00 +2°C° 0.3 mm 3 mps 717 mmHg 89%
    03:00 +2°C° 0.3 mm 3 mps 717 mmHg 89%
    04:00 +3°C° 0.3 mm 2 mps 717 mmHg 90%
    05:00 +3°C° 0.7 mm 2 mps 717 mmHg 92%
    06:00 +3°C° 0.7 mm 2 mps 717 mmHg 95%
    07:00 +4°C° 0.7 mm 1 mps 717 mmHg 97%
    08:00 +4°C° 0.1 mm 2 mps 718 mmHg 92%
    09:00 +3°C° 0.1 mm 3 mps 718 mmHg 87%
    10:00 +4°C° 0.1 mm 4 mps 718 mmHg 82%
    11:00 +5°C° 0 mm 4 mps 719 mmHg 79%
    12:00 +5°C° 0 mm 4 mps 719 mmHg 76%
    13:00 +6°C° 0 mm 5 mps 719 mmHg 72%
    14:00 +6°C° 0.1 mm 4 mps 719 mmHg 72%
    15:00 +6°C° 0.1 mm 4 mps 718 mmHg 72%
    16:00 +7°C° 0.1 mm 3 mps 718 mmHg 71%
    17:00 +5°C° 0 mm 3 mps 719 mmHg 73%
    18:00 +4°C° 0 mm 3 mps 719 mmHg 75%
    19:00 +4°C° 0 mm 2 mps 719 mmHg 78%
    20:00 +3°C° 0 mm 2 mps 719 mmHg 79%
    21:00 +3°C° 0 mm 2 mps 719 mmHg 81%
    22:00 +1°C° 0 mm 3 mps 719 mmHg 83%
    23:00 +2°C° 0 mm 2 mps 719 mmHg 83%

    2 March, Monday

    Time Temperature Precipitation Wind Pressure Humidity
    00:00 +2°C° 0 mm 2 mps 719 mmHg 83%
    01:00 +1°C° 0 mm 2 mps 719 mmHg 83%
    02:00 0°C° 0 mm 3 mps 719 mmHg 83%
    03:00 0°C° 0 mm 3 mps 719 mmHg 83%
    04:00 0°C° 0 mm 3 mps 719 mmHg 83%
    05:00 0°C° 0 mm 3 mps 719 mmHg 83%
    06:00 +1°C° 0 mm 2 mps 719 mmHg 83%
    07:00 +1°C° 0 mm 2 mps 719 mmHg 83%
    08:00 +2°C° 0 mm 3 mps 719 mmHg 77%
    09:00 +3°C° 0 mm 3 mps 719 mmHg 71%
    10:00 +5°C° 0 mm 4 mps 720 mmHg 66%
    11:00 +6°C° 0 mm 4 mps 719 mmHg 63%
    12:00 +6°C° 0 mm 4 mps 719 mmHg 60%
    13:00 +7°C° 0 mm 5 mps 719 mmHg 58%
    14:00 +7°C° 0 mm 4 mps 718 mmHg 58%
    15:00 +7°C° 0 mm 4 mps 718 mmHg 59%
    16:00 +7°C° 0 mm 4 mps 717 mmHg 60%
    17:00 +7°C° 0 mm 3 mps 717 mmHg 65%
    18:00 +5°C° 0 mm 3 mps 717 mmHg 70%
    19:00 +3°C° 0 mm 3 mps 717 mmHg 75%
    20:00 +3°C° 0 mm 3 mps 717 mmHg 78%
    21:00 +3°C° 0 mm 3 mps 717 mmHg 81%
    22:00 +3°C° 0 mm 4 mps 718 mmHg 84%
    23:00 +3°C° 0 mm 4 mps 717 mmHg 84%
    Show more